KB7YYZ Weather Reports


time (UTC)temp
F
wind
direction
speed
knots
gust
knots
rain 1hr
in
rain 24hr
in
rain mn
in
humidity
%
barometer
mb
20190521044521 64 203 0.0 0.0 0.00 0.00 0.00 29 1016.3
20190521044018 65 225 0.0 0.0 0.00 0.00 0.00 28 1016.3
20190521043518 65 203 0.0 0.0 0.00 0.00 0.00 28 1016.2
20190521043021 65 180 0.0 0.0 0.00 0.00 0.00 28 1016.2
20190521042515 65 225 0.0 0.0 0.00 0.00 0.00 27 1016.2
20190521042015 66 180 0.0 0.0 0.00 0.00 0.00 27 1016.2
20190521041518 66 158 0.0 0.0 0.00 0.00 0.00 27 1016.1
20190521041015 66 158 0.0 0.0 0.00 0.00 0.00 27 1016.1
20190521040515 67 135 0.0 0.0 0.00 0.00 0.00 26 1016.1
20190521040015 67 135 0.0 0.9 0.00 0.00 0.00 26 1016.1
20190521035515 67 135 0.0 1.7 0.00 0.00 0.00 26 1016.0
20190521035018 67 135 0.0 0.0 0.00 0.00 0.00 25 1016.0
20190521034515 67 113 0.0 0.0 0.00 0.00 0.00 25 1016.0
20190521034018 67 135 0.0 0.9 0.00 0.00 0.00 25 1016.0
20190521033515 67 135 0.0 0.9 0.00 0.00 0.00 25 1015.6
20190521033021 68 90 0.0 0.0 0.00 0.00 0.00 25 1015.6
20190521032518 68 90 0.9 1.7 0.00 0.00 0.00 24 1015.6
20190521032018 68 90 0.9 7.0 0.00 0.00 0.00 24 1015.6
20190521031518 69 113 0.0 2.6 0.00 0.00 0.00 23 1015.5
20190521031015 69 135 0.9 1.7 0.00 0.00 0.00 23 1015.5
20190521030521 69 113 1.7 1.7 0.00 0.00 0.00 23 1015.4
20190521030021 69 113 3.5 4.3 0.00 0.00 0.00 23 1015.4
20190521025521 69 90 2.6 7.0 0.00 0.00 0.00 23 1015.0
20190521025018 69 158 1.7 5.2 0.00 0.00 0.00 23 1015.0
20190521024518 69 113 1.7 4.3 0.00 0.00 0.00 22 1015.0
20190521024021 69 90 1.7 2.6 0.00 0.00 0.00 22 1015.0
20190521023515 69 135 1.7 3.5 0.00 0.00 0.00 23 1015.3
20190521023018 69 68 1.7 6.1 0.00 0.00 0.00 23 1015.3
20190521022515 70 113 1.7 5.2 0.00 0.00 0.00 22 1015.3
20190521022018 69 90 2.6 5.2 0.00 0.00 0.00 22 1015.3
20190521021518 70 135 2.6 5.2 0.00 0.00 0.00 22 1014.9
20190521021021 70 113 2.6 5.2 0.00 0.00 0.00 22 1014.9
20190521020515 70 68 2.6 4.3 0.00 0.00 0.00 22 1014.9
20190521020018 70 135 3.5 7.0 0.00 0.00 0.00 21 1014.9
20190521015515 71 68 4.3 6.1 0.00 0.00 0.00 21 1014.5
20190521015015 71 90 3.5 9.6 0.00 0.00 0.00 21 1014.5
20190521014515 71 90 3.5 9.6 0.00 0.00 0.00 21 1014.4
20190521014018 72 90 4.3 5.2 0.00 0.00 0.00 21 1014.4
20190521013518 72 90 5.2 6.1 0.00 0.00 0.00 21 1014.3
20190521013021 73 68 3.5 8.7 0.00 0.00 0.00 21 1014.2
20190521012515 73 113 2.6 8.7 0.00 0.00 0.00 20 1014.2
20190521012018 73 135 3.5 6.1 0.00 0.00 0.00 19 1014.2
20190521011518 73 68 3.5 6.1 0.00 0.00 0.00 19 1014.0
20190521011024 74 68 3.5 7.8 0.00 0.00 0.00 19 1014.0
20190521010521 74 45 2.6 3.5 0.00 0.00 0.00 19 1014.0
20190521010015 74 113 4.3 6.1 0.00 0.00 0.00 20 1014.0
20190521005518 74 158 5.2 11.3 0.00 0.00 0.00 19 1013.9
20190521005015 74 90 6.1 10.4 0.00 0.00 0.00 19 1013.9
20190521004518 75 135 7.0 13.9 0.00 0.00 0.00 18 1013.9
20190521004021 76 158 3.5 6.1 0.00 0.00 0.00 18 1013.9
20190521003518 76 113 2.6 6.1 0.00 0.00 0.00 18 1013.9
20190521003018 76 113 4.3 8.7 0.00 0.00 0.00 18 1013.9
20190521002521 76 45 4.3 8.7 0.00 0.00 0.00 18 1013.9
20190521002015 76 68 4.3 13.0 0.00 0.00 0.00 17 1013.9
20190521001515 78 90 4.3 8.7 0.00 0.00 0.00 17 1013.7
20190521001021 78 113 5.2 11.3 0.00 0.00 0.00 17 1013.6
20190521000515 79 45 4.3 12.2 0.00 0.00 0.00 17 1013.6
20190521000015 78 45 3.5 8.7 0.00 0.00 0.00 17 1013.6
20190520235518 77 45 5.2 8.7 0.00 0.00 0.00 18 1013.7
20190520235021 76 68 5.2 10.4 0.00 0.00 0.00 18 1013.7
20190520234518 77 135 6.1 13.0 0.00 0.00 0.00 17 1013.6
20190520234015 78 68 5.2 9.6 0.00 0.00 0.00 17 1013.6
20190520233515 78 90 5.2 5.2 0.00 0.00 0.00 17 1013.6
20190520233021 78 90 5.2 8.7 0.00 0.00 0.00 18 1013.5
20190520232515 76 45 5.2 7.0 0.00 0.00 0.00 18 1013.5
20190520232018 76 90 5.2 7.8 0.00 0.00 0.00 18 1013.5
20190520231518 78 135 4.3 9.6 0.00 0.00 0.00 18 1013.6
20190520231021 77 68 4.3 10.4 0.00 0.00 0.00 20 1013.6
20190520230515 78 45 4.3 10.4 0.00 0.00 0.00 20 1013.6
20190520230018 78 135 4.3 5.2 0.00 0.00 0.00 20 1013.6
20190520225521 77 68 4.3 5.2 0.00 0.00 0.00 20 1013.6
20190520225018 77 90 5.2 10.4 0.00 0.00 0.00 21 1013.6
20190520224521 76 68 5.2 10.4 0.00 0.00 0.00 20 1013.6
20190520224018 76 68 5.2 7.8 0.00 0.00 0.00 21 1013.6
20190520223515 76 113 5.2 6.1 0.00 0.00 0.00 21 1013.6
20190520223018 75 68 5.2 11.3 0.00 0.00 0.00 21 1013.6
20190520222518 75 113 5.2 9.6 0.00 0.00 0.00 22 1013.6
20190520222018 74 45 7.0 9.6 0.00 0.00 0.00 23 1013.6
20190520221515 73 45 6.1 11.3 0.00 0.00 0.00 22 1013.7
20190520221018 73 68 4.3 10.4 0.00 0.00 0.00 22 1013.7
20190520220521 73 23 4.3 9.6 0.00 0.00 0.00 23 1013.7
20190520220015 73 90 3.5 11.3 0.00 0.00 0.00 23 1013.7
20190520215515 73 68 3.5 3.5 0.00 0.00 0.00 23 1014.0
20190520215021 73 45 2.6 7.8 0.00 0.00 0.00 23 1014.0
20190520214515 73 68 1.7 7.0 0.00 0.00 0.00 24 1014.0
20190520214018 73 113 2.6 4.3 0.00 0.00 0.00 25 1014.0
20190520213518 72 135 3.5 4.3 0.00 0.00 0.00 25 1013.9
20190520213021 72 113 1.7 5.2 0.00 0.00 0.00 25 1013.9
20190520212521 72 68 1.7 3.5 0.00 0.00 0.00 25 1013.9
20190520212015 72 68 1.7 7.0 0.00 0.00 0.00 25 1013.9
20190520211518 73 68 2.6 5.2 0.00 0.00 0.00 25 1014.2
20190520211021 73 68 4.3 8.7 0.00 0.00 0.00 24 1014.2
20190520210518 73 68 5.2 8.7 0.00 0.00 0.00 25 1014.2
20190520210018 73 68 5.2 7.8 0.00 0.00 0.00 25 1014.2
20190520205518 72 68 5.2 8.7 0.00 0.00 0.00 25 1014.0
20190520205015 72 68 4.3 9.6 0.00 0.00 0.00 25 1014.0
20190520204515 72 203 5.2 8.7 0.00 0.00 0.00 26 1014.0
20190520204015 71 45 6.1 11.3 0.00 0.00 0.00 26 1014.0
20190520203521 71 68 4.3 11.3 0.00 0.00 0.00 26 1014.4
20190520203015 71 113 3.5 7.0 0.00 0.00 0.00 26 1014.4
20190520202521 70 315 3.5 7.0 0.00 0.00 0.00 26 1014.4
20190520202021 69 135 3.5 7.8 0.00 0.00 0.00 27 1014.4
20190520201518 68 68 3.5 7.8 0.00 0.00 0.00 29 1014.5
20190520201015 68 113 4.3 6.1 0.00 0.00 0.00 28 1014.5
20190520200515 67 90 4.3 6.1 0.00 0.00 0.00 28 1014.5
20190520200018 67 113 5.2 5.2 0.00 0.00 0.00 27 1014.5
20190520195518 67 113 7.0 9.6 0.00 0.00 0.00 28 1014.3
20190520195018 67 113 7.0 10.4 0.00 0.00 0.00 30 1014.3
20190520194518 68 68 6.1 10.4 0.00 0.00 0.00 28 1014.3
20190520194015 68 68 5.2 9.6 0.00 0.00 0.00 28 1014.3
20190520193518 68 113 5.2 13.9 0.00 0.00 0.00 30 1014.5
20190520193018 68 68 6.1 10.4 0.00 0.00 0.00 31 1014.5
20190520192518 67 203 7.0 10.4 0.00 0.00 0.00 31 1014.5
20190520192021 67 293 7.8 10.4 0.00 0.00 0.00 30 1014.5
20190520191518 68 113 7.0 9.6 0.00 0.00 0.00 28 1014.3
20190520191015 68 135 8.7 9.6 0.00 0.00 0.00 28 1014.3
20190520190521 68 135 8.7 9.6 0.00 0.00 0.00 28 1014.3
20190520190015 68 158 7.8 19.1 0.00 0.00 0.00 28 1014.3
20190520185521 68 135 7.0 11.3 0.00 0.00 0.00 27 1013.9
20190520185021 69 90 7.0 15.6 0.00 0.00 0.00 28 1013.9
20190520184515 69 90 7.0 15.6 0.00 0.00 0.00 27 1013.9
20190520184018 69 113 7.8 11.3 0.00 0.00 0.00 27 1013.9
20190520183518 69 135 7.8 13.0 0.00 0.00 0.00 26 1013.5
20190520183018 70 90 5.2 13.9 0.00 0.00 0.00 26 1013.5
20190520182515 70 135 4.3 7.8 0.00 0.00 0.00 27 1013.5
20190520182018 70 0 4.3 7.8 0.00 0.00 0.00 26 1013.5
20190520181521 70 113 4.3 7.8 0.00 0.00 0.00 26 1013.5
20190520181018 70 113 4.3 8.7 0.00 0.00 0.00 26 1013.5
20190520180515 70 180 4.3 6.1 0.00 0.00 0.00 27 1013.5
20190520180021 71 113 4.3 5.2 0.00 0.00 0.00 27 1013.5
20190520175521 70 135 5.2 10.4 0.00 0.00 0.00 27 1013.3
20190520175021 70 113 6.1 12.2 0.00 0.00 0.00 28 1013.3
20190520174521 69 113 5.2 12.2 0.00 0.00 0.00 29 1013.3
20190520174015 69 135 4.3 7.0 0.00 0.00 0.00 30 1013.3
20190520173518 69 158 4.3 8.7 0.00 0.00 0.00 31 1013.9
20190520173015 69 113 3.5 7.0 0.00 0.00 0.00 32 1013.9
20190520172518 68 113 4.3 8.7 0.00 0.00 0.00 32 1013.9
20190520172015 69 113 4.3 6.1 0.00 0.00 0.00 32 1013.9
20190520171515 68 113 4.3 7.0 0.00 0.00 0.00 33 1013.6
20190520171021 68 113 2.6 7.8 0.00 0.00 0.00 34 1013.6
20190520170521 67 135 2.6 3.5 0.00 0.00 0.00 33 1013.6
20190520170018 67 113 3.5 4.3 0.00 0.00 0.00 33 1013.6
20190520165522 67 90 4.3 8.7 0.00 0.00 0.00 34 1013.6
20190520165015 67 135 4.3 9.6 0.00 0.00 0.00 35 1013.6
20190520164515 66 248 3.5 9.6 0.00 0.00 0.00 35 1013.6
20190520164015 66 68 3.5 3.5 0.00 0.00 0.00 35 1013.6
20190520163515 66 113 3.5 6.1 0.00 0.00 0.00 36 1014.0
20190520163015 65 135 4.3 8.7 0.00 0.00 0.00 35 1014.0
20190520162521 65 158 3.5 5.2 0.00 0.00 0.00 36 1014.0
20190520162021 65 113 4.3 9.6 0.00 0.00 0.00 36 1014.1
20190520161521 64 113 4.3 7.0 0.00 0.00 0.00 36 1013.8
20190520161021 64 135 4.3 5.2 0.00 0.00 0.00 36 1013.8
20190520160515 64 113 4.3 9.6 0.00 0.00 0.00 36 1013.8
20190520160015 64 158 2.6 8.7 0.00 0.00 0.00 36 1013.8
20190520155515 64 135 2.6 4.3 0.00 0.00 0.00 36 1013.7
20190520155018 64 158 2.6 3.5 0.00 0.00 0.00 36 1013.7
20190520154518 64 135 2.6 7.0 0.00 0.00 0.00 36 1013.7
20190520154021 64 113 2.6 4.3 0.00 0.00 0.00 36 1013.7
20190520153515 64 158 2.6 4.3 0.00 0.00 0.00 37 1013.9
20190520153021 64 113 2.6 3.5 0.00 0.00 0.00 37 1013.9
20190520152515 63 113 2.6 4.3 0.00 0.00 0.00 38 1013.9
20190520152018 63 135 1.7 4.3 0.00 0.00 0.00 38 1014.0
20190520151515 63 180 2.6 4.3 0.00 0.00 0.00 38 1013.4
20190520151021 63 113 3.5 7.8 0.00 0.00 0.00 38 1013.4
20190520150521 63 135 3.5 7.8 0.00 0.00 0.00 38 1013.5
20190520150018 62 113 3.5 7.8 0.00 0.00 0.00 39 1013.5
20190520145515 62 135 4.3 7.8 0.00 0.00 0.00 39 1013.3
20190520145015 62 113 4.3 7.8 0.00 0.00 0.00 40 1013.3
20190520144515 62 135 3.5 6.1 0.00 0.00 0.00 40 1013.3
20190520144018 62 113 4.3 7.8 0.00 0.00 0.00 40 1013.4
20190520143521 62 158 4.3 5.2 0.00 0.00 0.00 41 1012.8
20190520143021 62 180 3.5 7.0 0.00 0.00 0.00 41 1012.8
20190520142515 62 68 3.5 7.0 0.00 0.00 0.00 42 1012.9
20190520142018 63 135 3.5 5.2 0.00 0.00 0.00 41 1012.9
20190520141515 63 158 4.3 8.7 0.00 0.00 0.00 41 1013.0
20190520141018 63 113 3.5 7.0 0.00 0.00 0.00 41 1013.0
20190520140521 64 158 3.5 9.6 0.00 0.00 0.00 41 1013.0
20190520140015 64 135 2.6 4.3 0.00 0.00 0.00 43 1013.0
20190520135518 64 158 2.6 3.5 0.00 0.00 0.00 46 1012.9
20190520135021 64 135 3.5 4.3 0.00 0.00 0.00 47 1012.9
20190520134518 64 135 3.5 5.2 0.00 0.00 0.00 51 1012.9
20190520134018 65 113 4.3 7.8 0.00 0.00 0.00 53 1012.9
20190520133515 65 68 4.3 7.8 0.00 0.00 0.00 57 1012.5
20190520133015 65 68 4.3 6.1 0.00 0.00 0.00 57 1012.6
20190520132518 65 45 5.2 7.8 0.00 0.00 0.00 56 1012.6
20190520132018 65 45 4.3 6.1 0.00 0.00 0.00 56 1012.6
20190520131515 65 68 4.3 8.7 0.00 0.00 0.00 56 1012.4
20190520131018 65 45 4.3 8.7 0.00 0.00 0.00 54 1012.4
20190520130521 65 45 4.3 8.7 0.00 0.00 0.00 54 1012.4
20190520130015 65 45 3.5 4.3 0.00 0.00 0.00 54 1012.5
20190520125515 65 23 2.6 4.3 0.00 0.00 0.00 54 1012.4
20190520125015 65 45 1.7 4.3 0.00 0.00 0.00 53 1012.4
20190520124518 65 68 1.7 2.6 0.00 0.00 0.00 53 1012.4
20190520124018 65 23 0.9 0.9 0.00 0.00 0.00 52 1012.5
20190520123515 65 45 1.7 2.6 0.00 0.00 0.00 52 1012.6
20190520123021 65 315 2.6 3.5 0.00 0.00 0.00 52 1012.6
20190520122515 65 338 2.6 4.3 0.00 0.00 0.00 52 1012.6
20190520122021 65 45 3.5 4.3 0.00 0.00 0.00 52 1012.6
20190520121521 65 45 4.3 7.0 0.00 0.00 0.00 51 1012.3
20190520121015 65 23 3.5 5.2 0.00 0.00 0.00 51 1012.3
20190520120518 66 113 3.5 5.2 0.00 0.00 0.00 50 1012.3
20190520120015 66 68 3.5 4.3 0.00 0.00 0.00 49 1012.3
20190520115515 66 23 4.3 5.2 0.00 0.00 0.00 49 1012.5
20190520115018 66 68 5.2 7.0 0.00 0.00 0.00 48 1012.5
20190520114518 66 23 4.3 7.8 0.00 0.00 0.00 48 1012.5
20190520114019 66 68 4.3 5.2 0.00 0.00 0.00 47 1012.6
20190520113515 66 68 4.3 7.0 0.00 0.00 0.00 47 1012.7
20190520113018 66 45 4.3 7.0 0.00 0.00 0.00 46 1012.7
20190520112518 66 68 4.3 7.0 0.00 0.00 0.00 45 1012.7
20190520112015 66 68 3.5 6.1 0.00 0.00 0.00 44 1012.8
20190520111515 67 23 3.5 8.7 0.00 0.00 0.00 43 1012.9
20190520111021 67 23 3.5 7.0 0.00 0.00 0.00 42 1012.9
20190520110521 67 23 2.6 5.2 0.00 0.00 0.00 40 1012.9
20190520110018 67 23 2.6 4.3 0.00 0.00 0.00 39 1013.0
20190520105515 67 45 2.6 2.6 0.00 0.00 0.00 39 1012.9
20190520105018 67 23 2.6 4.3 0.00 0.00 0.00 39 1012.9
20190520104521 67 23 2.6 4.3 0.00 0.00 0.00 38 1012.9
20190520104021 67 23 1.7 3.5 0.00 0.00 0.00 38 1012.9
20190520103521 67 45 1.7 2.6 0.00 0.00 0.00 38 1012.8
20190520103018 67 68 1.7 2.6 0.00 0.00 0.00 37 1012.8
20190520102515 67 68 1.7 1.7 0.00 0.00 0.00 37 1012.9
20190520102018 67 23 1.7 3.5 0.00 0.00 0.00 37 1012.9
20190520101518 68 68 1.7 4.3 0.00 0.00 0.00 37 1012.9
20190520101018 68 225 1.7 3.5 0.00 0.00 0.00 36 1013.0
20190520100521 68 45 1.7 2.6 0.00 0.00 0.00 36 1013.0
20190520100015 68 68 1.7 2.6 0.00 0.00 0.00 36 1013.0
20190520095515 68 45 2.6 2.6 0.00 0.00 0.00 36 1013.3
20190520095018 68 45 3.5 6.1 0.00 0.00 0.00 36 1013.3
20190520094521 68 45 3.5 5.2 0.00 0.00 0.00 36 1013.3
20190520094021 68 23 3.5 5.2 0.00 0.00 0.00 36 1013.3
20190520093518 68 45 2.6 6.1 0.00 0.00 0.00 36 1013.2
20190520093015 68 23 2.6 5.2 0.00 0.00 0.00 36 1013.2
20190520092521 69 113 2.6 3.5 0.00 0.00 0.00 35 1013.3
20190520092021 69 68 2.6 3.5 0.00 0.00 0.00 35 1013.3
20190520091518 69 45 2.6 2.6 0.00 0.00 0.00 35 1013.8
20190520091018 69 68 2.6 6.1 0.00 0.00 0.00 35 1013.9
20190520090518 69 68 1.7 3.5 0.00 0.00 0.00 36 1013.9
20190520090018 69 113 0.9 1.7 0.00 0.00 0.00 35 1013.9
20190520085518 69 68 0.9 1.7 0.00 0.00 0.00 35 1014.0
20190520085018 69 68 0.0 1.7 0.00 0.00 0.00 35 1014.1
20190520084515 69 113 0.0 0.9 0.00 0.00 0.00 35 1014.1
20190520084018 69 90 0.0 0.0 0.00 0.00 0.00 35 1014.1
20190520083515 69 45 0.0 0.0 0.00 0.00 0.00 34 1014.2
20190520083021 70 45 0.0 0.0 0.00 0.00 0.00 34 1014.3
20190520082521 70 68 0.0 0.9 0.00 0.00 0.00 34 1014.3
20190520082021 70 68 0.9 0.0 0.00 0.00 0.00 33 1014.3
20190520081521 70 113 0.9 2.6 0.00 0.00 0.00 33 1014.1
20190520081018 70 68 1.7 2.6 0.00 0.00 0.00 33 1014.1
20190520080518 70 23 2.6 2.6 0.00 0.00 0.00 33 1014.1
20190520080018 70 23 2.6 4.3 0.00 0.00 0.00 33 1014.1
20190520075518 70 45 3.5 4.3 0.00 0.00 0.00 33 1014.6
20190520075015 70 23 3.5 5.2 0.00 0.00 0.00 33 1014.6
20190520074521 71 338 3.5 5.2 0.00 0.00 0.00 32 1014.6
20190520074015 71 0 3.5 5.2 0.00 0.00 0.00 32 1014.7
20190520073515 71 23 3.5 4.3 0.00 0.00 0.00 32 1015.0
20190520073015 71 0 3.5 5.2 0.00 0.00 0.00 32 1015.0
20190520072515 71 23 3.5 5.2 0.00 0.00 0.00 31 1015.0
20190520072015 71 23 3.5 5.2 0.00 0.00 0.00 31 1015.0
20190520071515 71 23 3.5 5.2 0.00 0.00 0.00 31 1015.5
20190520071018 71 23 3.5 5.2 0.00 0.00 0.00 31 1015.5
20190520070518 71 23 3.5 5.2 0.00 0.00 0.00 31 1015.5
20190520070021 71 23 3.5 5.2 0.00 0.00 0.00 31 1015.5
20190520065518 72 23 3.5 5.2 0.00 0.00 0.00 31 1015.7
20190520065018 72 23 3.5 3.5 0.00 0.00 0.00 31 1015.7
20190520064521 72 23 3.5 4.3 0.00 0.00 0.00 30 1015.7
20190520064021 72 23 3.5 4.3 0.00 0.00 0.00 30 1015.7
20190520063515 72 23 3.5 3.5 0.00 0.00 0.00 30 1015.8
20190520063015 72 0 3.5 5.2 0.00 0.00 0.00 30 1015.9
20190520062515 72 45 3.5 5.2 0.00 0.00 0.00 30 1015.9
20190520062018 72 338 3.5 4.3 0.00 0.00 0.00 30 1015.9
20190520061515 72 23 3.5 6.1 0.00 0.00 0.00 29 1016.1
20190520061021 73 23 3.5 5.2 0.00 0.00 0.00 29 1016.1
20190520060515 72 23 3.5 5.2 0.00 0.00 0.00 29 1016.1
20190520060018 73 338 2.6 4.3 0.00 0.00 0.00 30 1016.1
20190520055515 73 23 3.5 4.3 0.00 0.00 0.00 29 1016.2
20190520055021 73 45 2.6 7.0 0.00 0.00 0.00 29 1016.2
20190520054515 73 45 1.7 4.3 0.00 0.00 0.00 29 1016.2
20190520054015 73 68 2.6 5.2 0.00 0.00 0.00 29 1016.2
20190520053515 73 45 2.6 3.5 0.00 0.00 0.00 28 1016.3
20190520053018 73 68 4.3 6.1 0.00 0.00 0.00 28 1016.3
20190520052518 73 0 4.3 6.1 0.00 0.00 0.00 28 1016.3
20190520052018 73 23 3.5 5.2 0.00 0.00 0.00 28 1016.3
20190520051515 73 45 3.5 5.2 0.00 0.00 0.00 27 1016.2
20190520051021 74 45 3.5 4.3 0.00 0.00 0.00 26 1016.2
20190520050521 74 45 4.3 6.1 0.00 0.00 0.00 26 1016.2
20190520050015 74 23 2.6 6.1 0.00 0.00 0.00 26 1016.2
20190520045518 74 45 1.7 6.1 0.00 0.00 0.00 25 1016.2
20190520045021 74 68 0.9 1.7 0.00 0.00 0.00 25 1016.2